Location: Ayer Observatory
(42.2600°N, 71.0700°W)
Time: 00:09:41
(UTC-04:00)

XW-2A - Pass Details

Date: 13 August 2020
Orbit: 428 x 443 km, 97.3° (Epoch: 26 September)

Event Time Altitude Azimuth Distance (km) Brightness Sun altitude
Exits shadow 21:49:26 15° 220° (SW) 1,275 ? -20.0°
Maximum altitude 21:51:17 23° 264° (W) 971 ? -20.3°
Drops below altitude 10° 21:53:58 10° 319° (NW) 1,533 ? -20.6°
Sets 21:56:16 0° 335° (NNW) 2,406 ? -20.9°
